INTELSAT 30 (IS-30) (40271 NORAD) Tracking and Keplerian Element Data

This shows tracking and keplerian element data for the satellite.

Feedback or suggestion? Click here.




ElementValue
Catalog40271
NameINTELSAT 30 (IS-30)
Epoch Orbit2238
Epoch Day327.8612891
Epoch Year2020
RAAN299.5124
Inclination0.0159
Eccentricity0.0002393
Argument of Perigee173.9372
Mean Anonmoly163.8724
Mean Motion1.00271152
Decay Rate-1.52E-06
L11 40271U 14062A 20327.86128910 -.00000152 00000-0 00000+0 0 9994
L22 40271 0.0159 299.5124 0002393 173.9372 163.8724 1.00271152 22387

Live tracking and technical data element details for INTELSAT 30 (IS-30) (NORAD 40271). INTELSAT 30 (IS-30) can be tracked NOW for your location showing map with azimuth and elevation plus other details from your city location.

Track the satellite on the map from your city or location and see movement details for azimuth, elevation, latitude, longitude, range, height, and movement on the map or in text.







IsCatalogInMostPopularTable: catalog: 40271, numindb: 494
Update: records affected: 1



GetName: 40271 INTELSAT 30 (IS-30)

Hit Count: updated at: Mon, 23 Nov 2020 21:40:06 GMT